#timestamp,LO_Frequency,Hit,StdDev 
1712160015.3,286047000.4,N
1712160035.1,286047007.1,N
1712160055.9,286047010.0,N
1712160075.7,286047012.1,N
1712160095.6,286047017.0,Y
1712160115.4,286047018.1,P
1712160135.2,286047022.5,N
1712160155.1,286047029.9,N
1712160156.0,286047029.9,N
1712160175.8,286047033.5,N
1712160195.7,286047034.4,Y
1712160215.5,286047013.4,P
1712160235.3,286047013.3,P
1712160255.2,286047018.7,P
1712160275.0,286047014.5,Y
1712160275.9,286047014.5,P
1712160295.8,286047000.1,N
1712160315.6,286046998.2,N
1712160335.4,286046996.0,N
1712160355.3,286046993.9,N
1712160375.1,286046991.4,N
1712160395.8,286046988.1,N
1712160415.7,286046989.8,N
1712160435.5,286046991.5,N
1712160455.4,286046991.8,N
1712160475.2,286047000.9,N
1712160495.0,286047002.5,N
1712160495.9,286047002.5,N
1712160515.8,286047001.4,N
1712160535.6,286047003.8,N
1712160555.5,286047006.0,N
1712160575.3,286047003.4,N
1712160595.1,286047002.2,N
1712160615.9,286046997.9,N
1712160635.7,286046996.6,N
1712160655.5,286046997.7,N
1712160675.4,286046996.6,N
1712160695.2,286046995.6,N
1712160715.1,286046996.5,N
1712160716.0,286046996.5,N
1712160735.8,286047002.3,N
1712160755.6,286047000.0,N
1712160775.5,286047000.7,N
1712160795.3,286046999.9,N
1712160815.2,286047003.0,N
1712160835.9,286047003.7,N
1712160855.7,286047001.3,N
1712160875.6,286047004.5,N
1712160895.4,286047008.0,N
1712160915.2,286047011.8,N
1712160935.1,286047014.1,N
1712160936.0,286047014.1,N
1712160955.8,286047015.2,N
1712160975.7,286047012.8,N
1712160995.5,286047019.4,Y
1712161015.3,286047023.5,P
1712161035.2,286047024.2,N
1712161055.0,286047020.8,N
1712161055.9,286047020.8,N
1712161075.8,286047025.1,Y
1712161095.6,286047006.0,P
1712161115.4,286046999.4,N
1712161135.3,286046986.9,N
1712161155.1,286046980.0,N
1712161175.8,286046975.3,N
1712161195.7,286046967.9,N
1712161215.5,286046964.4,N
1712161265.4,286046950.5,E
1712161275.3,286046971.0,N
1712161325.2,286047004.2,E
1712161335.1,286047001.6,N
1712161355.8,286046996.7,P
1712161375.7,286046999.0,N
1712161395.5,286046997.2,N
1712161415.4,286046997.9,N
1712161435.2,286046996.3,N
1712161455.0,286046992.0,Y
1712161455.9,286046992.0,P
1712161475.8,286046997.4,N
1712161495.6,286047002.4,N
1712161515.4,286046998.5,N
1712161535.3,286046995.2,N
1712161555.1,286046998.5,N
1712161575.9,286047002.2,N
1712161595.7,286047006.9,N
1712161615.5,286047005.4,N
1712161635.4,286046999.9,N
1712161655.2,286047000.0,N
1712161675.0,286047002.2,N
1712161675.9,286047002.2,N
1712161695.8,286047004.1,N
1712161715.6,286047002.5,N
1712161735.5,286047001.9,N
1712161755.3,286046999.0,N
1712161775.1,286046994.2,N
1712161795.9,286046992.3,N
1712161815.7,286046992.5,N
1712161835.6,286046988.5,N
1712161855.4,286046989.3,N
1712161875.2,286046985.8,N
1712161895.1,286046984.4,N
1712161896.0,286046984.4,N
1712161915.8,286046987.8,N
1712161935.7,286046986.0,N
1712161955.5,286046984.5,N
1712161975.3,286046984.3,N
1712161995.2,286046985.2,N
1712162015.0,286046988.4,N
1712162015.9,286046988.4,N
1712162035.7,286046987.2,N
1712162055.6,286046988.3,N
1712162075.4,286046989.9,N
1712162095.3,286046985.6,N
1712162115.1,286046994.3,N
1712162116.0,286046994.3,N
1712162135.8,286047003.5,N
1712162155.7,286047000.1,N
1712162175.5,286047000.9,N
1712162195.3,286046996.6,N
1712162215.2,286047000.5,N
1712162235.0,286046999.9,N
1712162235.9,286046999.9,N
1712162255.8,286047000.4,N
1712162275.6,286046999.9,N
1712162295.4,286047004.3,N
1712162315.3,286047001.6,N
1712162335.1,286047004.1,N
1712162355.8,286047005.1,N
1712162375.7,286047004.7,N
1712162395.5,286047005.4,N
1712162415.4,286047003.3,N
1712162435.2,286047006.0,N
1712162455.0,286047005.3,N
1712162455.9,286047005.3,N
1712162475.8,286047002.9,N
1712162495.6,286047010.1,N
1712162515.4,286047008.8,N
1712162535.3,286047010.8,N
1712162555.1,286047008.4,N
1712162575.9,286047008.2,N
1712162595.7,286047011.5,N
1712162615.5,286047007.8,N
1712162635.4,286047008.9,N
1712162655.2,286047009.7,N
1712162675.0,286047015.6,Y
1712162676.0,286047015.6,P
1712162695.8,286047008.0,N
1712162715.6,286047006.1,N
1712162735.5,286047011.1,N
1712162755.3,286047012.8,Y
1712162775.1,286047001.9,P
1712162795.9,286047000.8,N
1712162815.7,286047001.2,N
1712162835.6,286046998.8,N
1712162855.4,286046997.5,N
1712162875.2,286046994.2,N
1712162895.1,286046999.3,N
1712162896.0,286046999.3,N
1712162915.8,286047003.3,N
1712162935.6,286047000.7,N
1712162955.5,286046995.6,N
1712162975.3,286046994.9,N
1712162995.2,286047002.7,N
1712163015.9,286046996.7,N
1712163035.7,286046994.0,N
1712163055.6,286046993.6,N
1712163075.4,286046995.9,N
1712163095.2,286046993.8,N
1712163115.1,286046995.4,N
1712163116.0,286046995.4,N
1712163135.8,286047000.7,N
1712163155.7,286046999.7,N
1712163175.5,286047000.6,N
1712163195.3,286046998.3,N
1712163215.2,286046998.5,N
1712163235.9,286046997.8,N
1712163255.7,286046997.9,N
1712163275.6,286046996.8,N
1712163295.4,286047000.6,N
1712163315.2,286046999.9,N
1712163335.1,286047010.4,Y
1712163336.0,286047010.4,P
1712163355.8,286047013.3,N
1712163375.7,286047017.1,N
1712163395.5,286047012.0,N
1712163415.3,286047010.6,N
1712163435.2,286047008.0,N
1712163455.0,286047011.6,N
1712163455.9,286047011.6,N
1712163475.8,286047013.3,N
1712163495.6,286047013.8,N
1712163515.4,286047017.5,Y
1712163535.3,286047011.2,P
1712163555.1,286047012.0,P
1712163575.8,286047013.3,P
1712163595.7,286047013.8,Y
